Showing default

SKYKRAFT-1A, 55054

Orbit data source: Space-Track

SKYKRAFT-1A, 55054 is a payload satellite owned by SkyKraft (AU) in SSO that was launched on Tue, 03 Jan 2023 UTC via an FALCON 9 launch vehicle from the Air Force Eastern Test Range (AFETR). Payload-class satellites include a variety of spacecraft equipped with specific instruments for various scientific and technological missions. These include communications satellites like Starlink; space stations such as the ISS; scientific satellites like the Hubble; Earth observation satellites from companies like Planet Labs, Umbra, and HawkEye 360; GPS; miniature CubeSats for education and research; and military/defense satellites.

Loading next visibility...
Identifier
55054, 2023-001AX
Orbit
SSO
Country
Flag of AUAU / AUS
Related business
Manufacturer
SkyKraft
Mission
Operational Commercial Communications
Bus & Motor
SKYKRAFT, Unknown motor
Mass
~50 kg wet, ~50 kg dry
Launch date (UTC)
2023-01-03 (4 years ago)
Launch vehicle
FALCON 9
Launch site
Air Force Eastern Test Range (AFETR)
Object type
Payload
Rocket body
Debris
Shape & HBR
Box, 0.3 m
Radar Cross Section
0.065 m², Large (>1 m²)

Expand to show TLE details & history
Last TLE update: 11 hours ago

TLE from 11 hours ago
0 SKYKRAFT-1A
1 55054U 23001AX  26235.58668198  .00004468  00000-0  15711-3 0  9994
2 55054  97.3165 291.9219 0007726 248.0577 111.9842 15.29844505202025
Epoch: 2026-08-23T14:04Z
TLE epoch observation values (Epoch: 2026-08-23T14:04:49.323Z)
Latitude
-0.00008°
Longitude
108.83579°
Altitude
481.369 km
Speed
7.624 km/s
True Right ascension
19h 27m 41s
True Declination
0° 00' 00"
Sunlit
Object was in full shadow at epoch
Visualization orbit readout
Latitude
Unknown
Longitude
Unknown
Altitude
Unknown
Speed
Unknown
Apparent Right ascension
Unknown
Apparent Declination
Unknown
Sunlit
N/A
Visualization observer readout
Local Sidereal Time
16:10:34
Azimuth
Unknown
Elevation
Unknown
Doppler factor
Unknown
Orbital elements
Apogee altitude
478.519 km
Perigee altitude
467.932 km
Semi-major axis
6,851.363 km
Eccentricity
0.00077
Inclination
97.3165°
RAAN
291.9219°
Arg. of periapsis
248.0577°
True anomaly
112.06627°
Mean anomaly
111.9842°
Eccentric anomaly
112.02524°
Mean motion
3.82717 °/min
Orbital period
94.06 mins
BSTAR
0.00015711
Loading maneuver chart data...
Computing Atmospheric mass density...
Loading historical data...
Loading historical data...
Loading historical data...
Loading historical data...
Loading historical data...
Loading historical data...
Loading historical data...

Documentation

Showing up to 5 results
|